NOAA NWS Hourly Roundups by Site

Regional Weather Roundup for Omaha, NE

To Select Another Site Choose from List

Select Site:  

000
ASUS43 KOAX 281110
RWRNE

WEATHER ROUNDUP FOR NEBRASKA
NATIONAL WEATHER SERVICE OMAHA NE
500 AM CST FRI FEB 28 2020

NOTES: SATELLITE DATA IS BEING USED TO AUGMENT CLOUD COVER ABOVE
       12000 FEET.
       "FAIR" INDICATES FEW OR NO CLOUDS BELOW 12,000 FEET WITH NO
       SIGNIFICANT WEATHER AND/OR OBSTRUCTIONS TO VISIBILITY.


NEZ001>004-019>022-054>056-281200-
NEBRASKA PANHANDLE

CITY           SKY/WX    TMP DP  RH WIND       PRES   REMARKS
SCOTTSBLUFF    FAIR      25  18  74 W9        30.20R WCI  15
ALLIANCE       FAIR      21  16  81 W9        30.14F WCI  11
CHADRON        FAIR      27  20  75 SW12      30.16S WCI  17
GORDON         FAIR      29  19  68 W10       30.10S WCI  19
KIMBALL        FAIR      28  18  66 W12       30.20R WCI  17
SIDNEY         FAIR      26  17  68 W13       30.17S WCI  15
$$

NEZ057>060-069>072-079>082-281200-
SOUTHWEST NEBRASKA

CITY           SKY/WX    TMP DP  RH WIND       PRES   REMARKS
NORTH PLATTE   FAIR      21  17  84 NW8       30.15S WCI  11
IMPERIAL       FAIR      28  17  63 W10       30.18S WCI  19
LEXINGTON      FAIR      25  22  87 W10       30.14S WCI  15
MCCOOK         FAIR      26  20  77 W10       30.18S WCI  16
OGALLALA       FAIR      24  20  87 W9        30.18S WCI  14
$$

NEZ005>010-023>029-035>040-094-281200-
NORTH CENTRAL NEBRASKA

CITY           SKY/WX    TMP DP  RH WIND       PRES   REMARKS
VALENTINE      FAIR      27  21  78 W7        30.07F WCI  19
AINSWORTH      FAIR      30  25  80 W7        30.08S WCI  23
BROKEN BOW     FAIR      35  21  56 W17       30.10S WCI  25
O`NEILL        FAIR      32  27  81 W10       30.07R WCI  24
ORD            FAIR      30  23  75 NW8       30.08S WCI  22
THEDFORD       FAIR      29  23  78 W6        30.11S WCI  23
$$

NEZ041-046>049-061>064-073>077-083>087-281200-
SOUTH CENTRAL NEBRASKA

CITY           SKY/WX    TMP DP  RH WIND       PRES   REMARKS
GRAND ISLAND   FAIR      29  23  78 W8        30.10S WCI  21
AURORA         FAIR      32  28  83 W12       30.09S WCI  23
HASTINGS       FAIR      31  25  78 W12       30.12R WCI  22
HEBRON         FAIR      30  26  85 CALM      30.12S
HOLDREGE       FAIR      30  24  75 W10       30.14R WCI  21
KEARNEY        FAIR      31  24  75 W12       30.13S WCI  22
$$

NEZ011>018-030>034-042>045-281200-
NORTHEAST NEBRASKA

CITY           SKY/WX    TMP DP  RH WIND       PRES   REMARKS
NORFOLK        FAIR      30  24  78 W10       30.05R WCI  21
ALBION         FAIR      30  26  85 NW6       30.06F WCI  24
BLAIR          FAIR      32  28  85 W8        30.04S WCI  25
COLUMBUS       FAIR      28  24  85 W9        30.08S WCI  19
FREMONT        FAIR      32  28  86 W9        30.06S WCI  24
TEKAMAH        FAIR      31  28  89 W7        30.05S WCI  24
WAYNE          FAIR      30  28  92 W5        30.04S WCI  26
$$

NEZ050>053-065>068-078-088>093-281200-
SOUTHEAST NEBRASKA

CITY           SKY/WX    TMP DP  RH WIND       PRES   REMARKS
LINCOLN        MOCLDY    33  26  75 W3        30.10S
OMAHA EPPLEY   MOCLDY    33  28  81 CALM      30.06S
BEATRICE       CLOUDY    33  29  85 W13       30.10F WCI  23
FALLS CITY       N/A     31  26  82 W7        30.08F WCI  24
NEBRASKA CITY  CLOUDY    32  28  88 W10       30.07S WCI  23
PLATTSMOUTH    CLOUDY    30  27  86 W7        30.06S WCI  23
$$

NEZ044-045-051>053-067-281200-
OMAHA AREA

CITY           SKY/WX    TMP DP  RH WIND       PRES   REMARKS
OMAHA EPPLEY   MOCLDY    33  28  81 CALM      30.06S
BLAIR          FAIR      32  28  85 W8        30.04S WCI  25
FREMONT        FAIR      32  28  86 W9        30.06S WCI  24
MILLARD        FAIR      33  26  76 NW7       30.07S WCI  27
OFFUTT AFB     MOCLDY    30  25  80 W6        30.06S WCI  24
PLATTSMOUTH    CLOUDY    30  27  86 W7        30.06S WCI  23
WAHOO          FAIR      32  28  84 W7        30.07S WCI  26
$$


 

View Past Reports for Omaha, NE.

Products Courtesy of NOAA-NWS
NWS Information Parsing Script by Ken True at Saratoga Weather - Script by SE Lincoln Weather.